Location: �perlecques
(50.8057°N, 2.1521°E)
Time: 09:58:16
(UTC+00:00)

Oscar 11 - Pass Details

Date: 02 October 2021
Orbit: 612 x 625 km, 97.6° (Epoch: 15 October)

Event Time Altitude Azimuth Distance (km) Brightness Sun altitude
Rises 04:48:51 0° 21° (NNE) 2,892 10.9 -11.0°
Reaches altitude 10° 04:51:15 10° 32° (NNE) 1,982 10.2 -10.6°
Maximum altitude 04:55:06 31° 95° (E) 1,083 9.2 -10.0°
Drops below altitude 10° 04:58:56 10° 158° (SSE) 1,971 9.9 -9.4°
Sets 05:01:18 0° 169° (S) 2,873 10.6 -9.1°
